Regional Weather Roundup
Issued by NWS

Home | Current Version | Previous Version | Text Only | Print | Product List | Glossary Off
Versions: 1 2 3 4 5 6 7 8 9 10 11 12 13 14 15 16 17 18 19 20 21 22 23 24 25 26 27 28 29 30 31 32 33 34 35 36 37 38 39 40 41 42 43 44 45 46 47 48 49 50

416
ASUS45 KPSR 292110
RWRAZ

ARIZONA HOURLY REGIONAL WEATHER ROUNDUP
NATIONAL WEATHER SERVICE PHOENIX AZ
200 PM MST THU SEP 29 2016

NOTE: FAIR INDICATES FEW OR NO CLOUDS BELOW 12,000 FEET WITH NO
SIGNIFICANT WEATHER AND/OR OBSTRUCTIONS TO VISIBILITY.

AZZ001>003-036-292200-
NORTHWEST ARIZONA

CITY           SKY/WX    TMP DP  RH WIND       PRES   REMARKS
BULLHEAD CITY  FAIR      95  50  21 SW12      30.00F
KINGMAN        FAIR      86  46  24 SW14      30.17F
$$

AZZ004>008-015-016-018-292200-
NORTH CENTRAL ARIZONA

CITY           SKY/WX    TMP DP  RH WIND       PRES   REMARKS
GRAND CANYON   LGT RAIN  61  50  67 S6        30.40S
PRESCOTT       CLOUDY    69  54  58 E9        30.29F
FLAGSTAFF      PTSUNNY   58  51  78 S5        30.42F
PAYSON         FAIR      66  57  72 CALM      30.35S
PAGE           CLOUDY    70  57  63 VRB3      30.28F
$$

AZZ009>014-017-292200-
NORTHEAST ARIZONA

CITY           SKY/WX    TMP DP  RH WIND       PRES   REMARKS
WINSLOW        HVY RAIN  59  57  93 N6        30.34F FOG
SAINT JOHNS    LGT RAIN  59  56  89 N9        30.40R
WINDOW ROCK    RAIN      57  52  83 N7        30.46F
SHOW LOW       PTSUNNY   54  52  94 E8        30.42F
$$

AZZ023-292200-
GREATER PHOENIX AREA

CITY           SKY/WX    TMP DP  RH WIND       PRES   REMARKS
PHOENIX        FAIR      90  59  35 VRB5      30.04F
BUCKEYE        FAIR      91  55  29 E13G18    30.05F
GLENDALE       PTSUNNY   90  59  35 N8        30.06F
LUKE AFB       FAIR      90  58  33 N5        30.03F
DEER VALLEY    FAIR      89  54  30 VRB6      30.05F
SCOTTSDALE     FAIR      88  56  33 CALM      30.07F
MESA-FALCON    MOSUNNY  N/A N/A N/A N14       30.03F
MESA-GATEWAY   MOSUNNY   88  55  33 W6        30.07F
CHANDLER       MOSUNNY   88  57  35 VRB6      30.06F
$$

AZZ027-028-292200-
SOUTHWEST MARICOPA COUNTY AND PINAL COUNTY

CITY           SKY/WX    TMP DP  RH WIND       PRES   REMARKS
CASA GRANDE    FAIR      88  57  35 N8        30.08F
GILA BEND      MOSUNNY   93  55  27 E10       30.00F
$$

AZZ503-504-507>509-292200-
SOUTHEAST ARIZONA

CITY           SKY/WX    TMP DP  RH WIND       PRES   REMARKS
TUCSON         FAIR      88  58  36 CALM      30.12F
DAVIS-MONTHAN  FAIR      90  59  35 NW6       30.11F
RYAN FIELD     SUNNY     88  61  40 CALM      30.11F
NOGALES        FAIR      87  57  35 W8        30.17F
SIERRA VISTA   CLOUDY    80  59  49 NW7       30.24F THUNDER
DOUGLAS        FAIR      84  55  36 SE5       30.19F
SAFFORD        FAIR      89  59  36 W6        30.12F
$$

AZZ020-021-025-026-031-292200-
SOUTHWEST ARIZONA

CITY           SKY/WX    TMP DP  RH WIND       PRES   REMARKS
YUMA           PTSUNNY   94  53  25 N3        29.97F
$$

CAZ031-033-041-043-047-048-061-292200-
SOUTHERN CALIFORNIA

CITY           SKY/WX    TMP DP  RH WIND       PRES   REMARKS
DOWNTOWN L.A.  FAIR      86  58  38 VRB5      29.99F
L.A. AIRPORT   FAIR      77  63  61 W16       30.01F
SAN DIEGO      FAIR      84  61  45 NW10      30.02F
BURBANK        FAIR      92  49  22 SW10      30.00F
ONTARIO        FAIR      93  44  18 VRB3      30.00F
RIVERSIDE      FAIR      96  45  17 VRB5      29.99F
PALM SPRINGS   FAIR      95  50  21 SE10      29.99F
EL CENTRO NAS  PTSUNNY   96  50  20 E6        29.97F
IMPERIAL       FAIR      96  57  27 E6        29.95F
BLYTHE         FAIR      92  50  23 SE3       29.99F
NEEDLES          N/A     95  53  24 NE5       30.00F
$$

NVZ020-UTZ003-292200-
SOUTHERN NEVADA-UTAH

CITY           SKY/WX    TMP DP  RH WIND       PRES   REMARKS
LAS VEGAS      FAIR      87  45  23 SE9       30.08F
SALT LAKE CITY PTSUNNY   77  45  32 S14       30.18F
$$

NMZ009-TXZ055-292200-
NEW MEXICO-WEST TEXAS

CITY           SKY/WX    TMP DP  RH WIND       PRES   REMARKS
ALBUQUERQUE    PTSUNNY   80  43  26 W10       30.33F
EL PASO        FAIR      85  43  22 E16       30.24F
$$


........................KEY........................
SKY/WX - SKY CONDITION/WEATHER
TMP    - TEMPERATURE IN FAHRENHEIT
DP     - DEW POINT IN FAHRENHEIT
RH     - RELATIVE HUMIDITY IN PERCENT
WIND   - DIRECTION AND SPEED IN MILES PER HOUR (MPH)
VRB    - VARIABLE WIND DIRECTION
PRES   - MEAN SEA LEVEL PRESSURE IN INCHES OF MERCURY
         F - FALLING PRESSURE   R - RISING PRESSURE
         S - STEADY PRESSURE
VSB    - VISIBILITY IN MILES
HX     - HEAT INDEX IN FAHRENHEIT
WCI    - WIND CHILL INDEX IN FAHRENHEIT
TC     - TEMPERATURE IN CELSIUS WHICH IS ALSO KNOWN AS
         TEMPERATURE IN CENTIGRADE
AFB    - AIR FORCE BASE
         LUKE AFB IS LUKE AIR FORCE BASE
         DAVIS-MONTHAN IS DAVIS-MONTHAN AIR FORCE BASE
NAS    - NAVAL AIR STATION
         EL CENTRO NAS IS EL CENTRO NAVAL AIR STATION
N/A    - NOT AVAILABLE





USA.gov is the U.S. government's official web portal to all federal, state and local government web resources and services.